Home > Time Zones > World Clock > Weather > Egypt > Cairo > Past weeks

Flag for Egypt Weather past 2 weeks in Cairo, Egypt

Now
61 °F

Clear.


Feels Like: 61 °F
Forecast: 61 / 92 °F
Wind: 7 mph from North

Location: Cairo Airport


UV Index: 7 (High)

Visibility: 4 mi


Pressure: 29.98 "Hg

Humidity: 77%

Dew point: 54 °F

Location of CairoLocation

Historic Weather in Cairo

°F

Cairo temperature yesterday

Maximum temperature yesterday: 81 °F (at 2:00 PM)
Minimum temperature yesterday: 63 °F (at 5:00 AM)
Average temperature yesterday: 70 °F

Past Weeks' High & Low Weather Summary

 TemperatureHumidityPressure
High95 °F (Apr 18, 2:30 PM)94% (Apr 17, 2:30 AM)30.07 "Hg (Apr 17, 2:30 AM)
Low57 °F (Apr 6, 6:00 AM)6% (Apr 6, 3:30 PM)29.74 "Hg (Apr 15, 3:00 AM)
Average72 °F49%29.94 "Hg
* Reported Apr 6 2:00 AM — Apr 21 2:30 AM, Cairo, Weather by CustomWeather, © 2014

Note: Actual official high and low records may vary slightly from our data, if they occured in-between our weather recording intervals... More about our weather records

Advertising

Historic Weather Conditions — Data for Previous 24 hours

 ConditionsComfort  
Time TempWeatherWind HumidityBarometerVisibility
2:30 AM
Apr 21
61 °FClear.9 mph77%30.01 "Hg4 mi
2:00 AM61 °FClear.8 mph77%30.01 "Hg10 mi
1:30 AM61 °FClear.8 mph77%30.01 "Hg10 mi
1:00 AM61 °FClear.8 mph77%30.01 "Hg10 mi
12:30 AM63 °FClear.9 mph73%30.01 "Hg10 mi
12:00 AM63 °FClear.9 mph73%30.01 "Hg10 mi
11:00 PM
Apr 20
63 °FClear.12 mph73%30.01 "Hg10 mi
10:30 PM64 °FClear.12 mph64%30.01 "Hg10 mi
10:00 PM64 °FClear.12 mph64%30.01 "Hg10 mi
9:30 PM66 °FClear.14 mph60%30.01 "Hg10 mi
9:00 PM66 °FClear.14 mph60%29.98 "Hg10 mi
8:35 PM68 °FClear.14 mph56%29.98 "Hg10 mi
8:00 PM70 °FClear.14 mph53%29.98 "Hg10 mi
7:30 PM72 °FClear.14 mph50%29.95 "Hg10 mi
7:00 PM73 °FClear.14 mph47%29.95 "Hg10 mi
6:30 PM75 °FClear.14 mph47%29.92 "Hg10 mi
6:00 PM75 °FSunny.15 mph47%29.92 "Hg10 mi
5:30 PM77 °FSunny.14 mph44%29.92 "Hg10 mi
5:00 PM79 °FSunny.14 mph42%29.92 "Hg10 mi
4:30 PM81 °FSunny.12 mph37%29.92 "Hg10 mi
4:00 PM81 °FSunny.12 mph37%29.92 "Hg10 mi
3:30 PM81 °FSunny.13 mph39%29.92 "Hg10 mi
3:00 PM81 °FSunny.12 mph39%29.92 "Hg10 mi
2:30 PM81 °FSunny.13 mph39%29.92 "Hg10 mi
2:00 PM81 °FSunny.13 mph39%29.95 "Hg10 mi
1:30 PM79 °FPassing clouds.13 mph42%29.95 "HgN/A
1:00 PM77 °FPassing clouds.13 mph47%29.95 "HgN/A
12:30 PM77 °FPassing clouds.14 mph47%29.95 "HgN/A
12:00 PM75 °FPassing clouds.15 mph50%29.98 "HgN/A
11:30 AM75 °FPassing clouds.14 mph50%29.98 "HgN/A
11:00 AM73 °FPassing clouds.15 mph53%29.98 "HgN/A
10:30 AM72 °FScattered clouds.13 mph57%29.98 "HgN/A
10:00 AM72 °FSunny.13 mph57%29.98 "Hg10 mi
9:30 AM68 °FSunny.14 mph64%29.98 "Hg10 mi
9:00 AM68 °FSunny.14 mph64%29.98 "Hg10 mi
8:30 AM66 °FClear.14 mph68%29.98 "Hg4 mi
8:00 AM64 °FFog.9 mph78%29.98 "Hg2 mi
7:30 AM64 °FFog.12 mph78%29.98 "Hg1 mi
7:00 AM63 °FFog.10 mph83%29.98 "Hg1 mi
6:30 AM63 °FFog.10 mph83%29.98 "Hg1 mi
6:00 AM63 °FFog.12 mph88%29.95 "Hg1 mi
5:30 AM63 °FFog.10 mph88%29.95 "Hg1 mi
5:00 AM63 °FFog.9 mph88%29.95 "Hg1 mi
4:30 AM64 °FFog.9 mph88%29.95 "Hg2 mi
4:00 AM64 °FFog.8 mph83%29.95 "Hg2 mi
3:30 AM64 °FFog.8 mph88%29.95 "Hg2 mi
3:00 AM64 °FFog.10 mph88%29.92 "Hg2 mi
Weather by CustomWeather, © 2014

See weather overview